Stetsonville, WI

11:00 PM CST on February 06, 2016 (GMT -0600)
Taylor County

Weather History for KMDZ - June, 2013

Change the Weather History Date:

Tuesday, June 25, 2013

  Actual Average (KAUW) Record (KAUW)
Temperature  
Mean Temperature 71 °F 68 °F  
Max Temperature 78 °F 78 °F 92 °F (1966)
Min Temperature 64 °F 57 °F 42 °F (2004)
Degree Days  
Heating Degree Days 0 2  
Month to date heating degree days 82  
Since 1 June heating degree days 82  
Since 1 July heating degree days 8242  
Cooling Degree Days 6 4  
Month to date cooling degree days 62  
Year to date cooling degree days 81  
Since 1 June cooling degree days 62  
Growing Degree Days 21 (Base 50)    
Moisture  
Dew Point 66 °F    
Average Humidity 84    
Maximum Humidity 100    
Minimum Humidity 65    
Precipitation  
Precipitation 0.00 in 0.14 in 1.75 in (1998)
Month to date precipitation 3.65  
Year to date precipitation 13.56  
Snow  
Snow 0.00 in 0.00 in 0.00 in ()
Month to date snowfall 0.0  
Since 1 July snowfall 59.6  
Snow Depth -    
Sea Level Pressure  
Sea Level Pressure 29.85 in    
Wind  
Wind Speed 3 mph (South)    
Max Wind Speed 10 mph    
Max Gust Speed -    
Visibility 9 miles    
Events      
T = Trace of Precipitation, MM = Missing Value Source: NWS Daily Summary

Daily Weather History Graph

Daily Weather History Graph

Search for Another Location

Airport or City:

Trip Planner

Search our weather history database for the weather conditions in past years. The results will help you decide how hot, cold, wet, or windy it might be!

Date:

Astronomy

Jun. 25, 2013 Rise Set
Actual Time 5:15 AM CDT 8:52 PM CDT
Civil Twilight 4:37 AM CDT 9:29 PM CDT
Nautical Twilight 3:47 AM CDT 10:19 PM CDT
Astronomical Twilight 2:41 AM CDT 11:26 PM CDT
Moon 10:28 PM CDT (6/25) 8:03 AM CDT (6/25)
Length of Visible Light 16h 52m
Length of Day
15h 37m
Waning Gibbous, 92% of the Moon is Illuminated
Jun 25
Waning Gibbous
Jun 29
Last Quarter
Jul 8
New
Jul 15
First Quarter
Jul 22
Full

Hourly Weather History & Observations

Time (CDT) Temp. Dew Point Humidity Pressure Visibility Wind Dir Wind Speed Gust Speed Precip Events Conditions
12:15 AM 68.0 °F 66.2 °F 94% 29.88 in 10.0 mi SW 5.8 mph - N/A   Clear
12:35 AM 68.0 °F 66.2 °F 94% 29.87 in 10.0 mi SW 3.5 mph - N/A   Clear
12:55 AM 68.0 °F 64.4 °F 88% 29.87 in 10.0 mi SSW 3.5 mph - N/A   Clear
1:15 AM 66.2 °F 64.4 °F 94% 29.88 in 10.0 mi SW 4.6 mph - N/A   Clear
1:35 AM 66.2 °F 64.4 °F 94% 29.88 in 10.0 mi Calm Calm - N/A   Clear
1:55 AM 66.2 °F 64.4 °F 94% 29.88 in 10.0 mi SW 4.6 mph - N/A   Clear
2:15 AM 66.2 °F 64.4 °F 94% 29.87 in 10.0 mi Calm Calm - N/A   Clear
2:35 AM 64.4 °F 64.4 °F 100% 29.87 in 7.0 mi Calm Calm - N/A   Clear
2:55 AM 64.4 °F 64.4 °F 100% 29.87 in 7.0 mi Calm Calm - N/A   Clear
3:15 AM 64.4 °F 62.6 °F 94% 29.87 in 7.0 mi Calm Calm - N/A   Clear
3:35 AM 64.4 °F 62.6 °F 94% 29.87 in 5.0 mi Calm Calm - N/A   Clear
3:55 AM 64.4 °F 62.6 °F 94% 29.86 in 5.0 mi South 3.5 mph - N/A   Clear
4:15 AM 64.4 °F 62.6 °F 94% 29.87 in 10.0 mi SW 5.8 mph - N/A   Clear
4:35 AM 64.4 °F 62.6 °F 94% 29.87 in 10.0 mi SW 3.5 mph - N/A   Clear
4:55 AM 64.4 °F 62.6 °F 94% 29.88 in 10.0 mi SSW 4.6 mph - N/A   Clear
5:15 AM 64.4 °F 62.6 °F 94% 29.87 in 10.0 mi SSW 4.6 mph - N/A   Clear
5:35 AM 64.4 °F 62.6 °F 94% 29.87 in 7.0 mi Calm Calm - N/A   Clear
5:55 AM 64.4 °F 62.6 °F 94% 29.86 in 5.0 mi Calm Calm - N/A   Clear
6:15 AM 64.4 °F 62.6 °F 94% 29.86 in 4.0 mi Calm Calm - N/A   Clear
6:35 AM 64.4 °F 62.6 °F 94% 29.86 in 3.0 mi Calm Calm - N/A   Clear
6:55 AM 64.4 °F 62.6 °F 94% 29.84 in 3.0 mi Calm Calm - N/A   Clear
7:15 AM 64.4 °F 64.4 °F 100% 29.84 in 5.0 mi Calm Calm - N/A   Mostly Cloudy
7:35 AM 66.2 °F 64.4 °F 94% 29.87 in 5.0 mi Calm Calm - N/A   Scattered Clouds
7:55 AM 66.2 °F 64.4 °F 94% 29.90 in 7.0 mi SW 9.2 mph - N/A   Mostly Cloudy
8:15 AM 66.2 °F 64.4 °F 94% 29.90 in 7.0 mi SW 6.9 mph - N/A   Overcast
8:35 AM 66.2 °F 64.4 °F 94% 29.90 in 7.0 mi SW 4.6 mph - N/A   Overcast
8:55 AM 66.2 °F 64.4 °F 94% 29.90 in 7.0 mi SSW 5.8 mph - N/A   Overcast
9:15 AM 68.0 °F 64.4 °F 88% 29.89 in 7.0 mi SSW 3.5 mph - N/A   Overcast
9:35 AM 68.0 °F 64.4 °F 88% 29.88 in 10.0 mi South 4.6 mph - N/A   Overcast
9:55 AM 69.8 °F 64.4 °F 83% 29.87 in 10.0 mi SSE 5.8 mph - N/A   Overcast
10:15 AM 69.8 °F 64.4 °F 83% 29.88 in 10.0 mi SSE 3.5 mph - N/A   Overcast
10:35 AM 69.8 °F 64.4 °F 83% 29.87 in 10.0 mi Calm Calm - N/A   Overcast
10:55 AM 69.8 °F 66.2 °F 88% 29.87 in 10.0 mi Calm Calm - N/A   Overcast
11:15 AM 71.6 °F 66.2 °F 83% 29.87 in 10.0 mi Calm Calm - N/A   Mostly Cloudy
11:35 AM 71.6 °F 66.2 °F 83% 29.87 in 10.0 mi Calm Calm - N/A   Scattered Clouds
11:55 AM 73.4 °F 66.2 °F 78% 29.86 in 10.0 mi Calm Calm - N/A   Scattered Clouds
12:15 PM 73.4 °F 66.2 °F 78% 29.85 in 10.0 mi North 3.5 mph - N/A   Scattered Clouds
12:35 PM 75.2 °F 66.2 °F 73% 29.85 in 10.0 mi Calm Calm - N/A   Clear
12:55 PM 77.0 °F 68.0 °F 74% 29.86 in 10.0 mi South 8.1 mph - N/A   Scattered Clouds
1:15 PM 75.2 °F 68.0 °F 78% 29.86 in 10.0 mi South 5.8 mph - N/A   Scattered Clouds
1:35 PM 77.0 °F 66.2 °F 69% 29.86 in 10.0 mi South 4.6 mph - N/A   Scattered Clouds
1:55 PM 78.8 °F 68.0 °F 69% 29.86 in 10.0 mi SSE 8.1 mph - N/A   Scattered Clouds
2:15 PM 78.8 °F 68.0 °F 69% 29.86 in 10.0 mi South 8.1 mph - N/A   Scattered Clouds
2:35 PM 78.8 °F 68.0 °F 69% 29.86 in 10.0 mi South 6.9 mph - N/A   Mostly Cloudy
2:55 PM 78.8 °F 68.0 °F 69% 29.86 in 10.0 mi SSW 10.4 mph - N/A   Mostly Cloudy
3:15 PM 78.8 °F 68.0 °F 69% 29.85 in 10.0 mi South 6.9 mph - N/A   Mostly Cloudy
3:35 PM 77.0 °F 66.2 °F 69% 29.85 in 10.0 mi South 8.1 mph - N/A   Scattered Clouds
3:55 PM 78.8 °F 66.2 °F 65% 29.85 in 10.0 mi South 6.9 mph - N/A   Clear
4:15 PM 78.8 °F 66.2 °F 65% 29.84 in 10.0 mi South 6.9 mph - N/A   Clear
4:35 PM 78.8 °F 68.0 °F 69% 29.83 in 10.0 mi SSE 6.9 mph - N/A   Scattered Clouds
4:55 PM 78.8 °F 66.2 °F 65% 29.84 in 10.0 mi ESE 4.6 mph - N/A   Scattered Clouds
5:15 PM 78.8 °F 66.2 °F 65% 29.84 in 10.0 mi South 3.5 mph - N/A   Clear
5:35 PM 78.8 °F 66.2 °F 65% 29.83 in 10.0 mi South 3.5 mph - N/A   Clear
5:55 PM 78.8 °F 68.0 °F 69% 29.83 in 10.0 mi Calm Calm - N/A   Scattered Clouds
6:15 PM 78.8 °F 68.0 °F 69% 29.83 in 10.0 mi Calm Calm - N/A   Scattered Clouds
6:35 PM 78.8 °F 66.2 °F 65% 29.82 in 10.0 mi Calm Calm - N/A   Scattered Clouds
6:55 PM 78.8 °F 68.0 °F 69% 29.82 in 10.0 mi South 3.5 mph - N/A   Clear
7:15 PM 77.0 °F 68.0 °F 74% 29.82 in 10.0 mi Calm Calm - N/A   Clear
7:35 PM 77.0 °F 69.8 °F 78% 29.82 in 10.0 mi SSE 3.5 mph - N/A   Clear
7:55 PM 77.0 °F 69.8 °F 78% 29.82 in 10.0 mi Calm Calm - N/A   Clear
8:15 PM 75.2 °F 69.8 °F 83% 29.82 in 10.0 mi SE 3.5 mph - N/A   Clear
8:35 PM 75.2 °F 68.0 °F 78% 29.81 in 10.0 mi SE 3.5 mph - N/A   Clear
8:55 PM 73.4 °F 68.0 °F 83% 29.82 in 10.0 mi Calm Calm - N/A   Clear
9:15 PM 71.6 °F 68.0 °F 88% 29.82 in 10.0 mi ESE 3.5 mph - N/A   Clear
9:35 PM 71.6 °F 68.0 °F 88% 29.82 in 10.0 mi SE 4.6 mph - N/A   Clear
9:55 PM 71.6 °F 68.0 °F 88% 29.82 in 10.0 mi SE 4.6 mph - N/A   Clear
10:15 PM 71.6 °F 68.0 °F 88% 29.81 in 10.0 mi SE 4.6 mph - N/A   Clear
10:35 PM 71.6 °F 68.0 °F 88% 29.80 in 10.0 mi ESE 5.8 mph - N/A   Clear
10:55 PM 69.8 °F 66.2 °F 88% 29.80 in 10.0 mi ESE 4.6 mph - N/A   Clear
11:15 PM 69.8 °F 66.2 °F 88% 29.80 in 10.0 mi SE 4.6 mph - N/A   Clear
11:35 PM 69.8 °F 66.2 °F 88% 29.80 in 10.0 mi SSE 3.5 mph - N/A   Clear
11:55 PM 69.8 °F 66.2 °F 88% 29.79 in 10.0 mi SSE 4.6 mph - N/A   Clear